STARLINK-5769, 55585

Orbit data source: Space-Track

STARLINK-5769, 55585 is a payload satellite owned by SpaceX/Seattle (US) in LEO that was launched on Sun, 12 Feb 2023 UTC via an FALCON 9 launch vehicle from the Air Force Eastern Test Range (AFETR). Payload-class satellites include a variety of spacecraft equipped with specific instruments for various scientific and technological missions. These include communications satellites like Starlink; space stations such as the ISS; scientific satellites like the Hubble; Earth observation satellites from companies like Planet Labs, Umbra, and HawkEye 360; GPS; miniature CubeSats for education and research; and military/defense satellites.

Loading next visibility...
Identifier
55585, 2023-020S
Orbit
LEO
Country
Flag of USUS
Related business
Manufacturer
SpaceX/Seattle
Mission
Operational Commercial Communications
Bus & Motor
STARLINK, Unknown motor
Mass
305 kg wet, ~290 kg dry
Launch date (UTC)
2023-02-12 (3 years ago)
Launch vehicle
FALCON 9
Launch site
Air Force Eastern Test Range (AFETR)
Object type
Payload
Rocket body
Debris
Shape & HBR
Box + 1 Pan, 10.1 m
Radar Cross Section
13.562 m², Large (>1 m²)

Expand to show TLE details & history
Last TLE update: 1 day ago

TLE from 1 day ago
0 STARLINK-5769
1 55585U 23020S   26061.30367488  .00001542  00000-0  12925-3 0  9993
2 55585  43.0053  32.2075 0001029 268.1478  91.9247 15.02520995167950
Epoch: 2026-03-02T07:17Z
TLE epoch observation values (Epoch: 2026-03-02T07:17:17.509Z)
Latitude
0.00001°
Longitude
122.78554°
Altitude
558.928 km
Speed
7.584 km/s
True Right ascension
02h 08m 49s
True Declination
0° 00' 00"
Sunlit
Object was in daylight at epoch
Visualization orbit readout
Latitude
Unknown
Longitude
Unknown
Altitude
Unknown
Speed
Unknown
Apparent Right ascension
Unknown
Apparent Declination
Unknown
Sunlit
N/A
Visualization observer readout
Local Sidereal Time
13:14:30
Azimuth
Unknown
Elevation
Unknown
Doppler factor
Unknown
Orbital elements
Apogee altitude
561.763 km
Perigee altitude
560.335 km
Semi-major axis
6,939.186 km
Eccentricity
0.0001
Inclination
43.0053°
RAAN
32.2075°
Arg. of periapsis
268.1478°
True anomaly
91.93648°
Mean anomaly
91.9247°
Eccentric anomaly
91.93059°
Mean motion
3.75474 °/min
Orbital period
95.88 mins
BSTAR
0.00012925
Loading maneuver chart data...
Computing Atmospheric mass density...
Loading historical data...
Loading historical data...
Loading historical data...
Loading historical data...
Loading historical data...
Loading historical data...
Loading historical data...

Documentation

Showing up to 5 results
|